Location: Cronhütte
(48.9135°N, 9.6869°E)
Time: 13:35:55
(UTC+00:00)

Genesis I - Pass Details

Date: 17 August 2024
Orbit: 411 x 455 km, 64.5° (Epoch: 16 September)

Event Time Altitude Azimuth Distance (km) Brightness Sun altitude
Exits shadow 02:11:56 21° 292° (WNW) 1,054 4.5 -17.7°
Maximum altitude 02:13:03 25° 322° (NW) 944 4.6 -17.6°
Drops below altitude 10° 02:16:04 10° 20° (NNE) 1,599 6.7 -17.3°
Sets 02:18:28 0° 34° (NE) 2,488 8.3 -17.0°
